[[{"header":{"parameterUnit":"m.s-1","parameterCategory":1,"la1":30.2991,"la2":30.254,"lo1":-89.0895,"lo2":-89.0444,"dy":0.0017,"dx":0.0017,"nx":28,"ny":28,"refTime":"2023-08-26T21:00:00:Z","depth":0,"parameterNumber":2,"parameterNumberName":"U-component_of_WINDS"},"data":[0,0,0,0,0,0,0,0,0,0,0,0,0,0,0,0,0,0,0,0,0,0,0,0,0,0,0,0,0,0,0,0,0,0,0,0,0,0,0,0,0,0,0,0,0,0,0,0,0,0,0,0,0,0,0,0,0,0,0.1339,0.1339,0,0.1362,0.1362,0.1362,0.1374,0.1374,0.1374,0.1374,0.1397,0.1398,0.1398,0,0,0,0,0,0,0,0,0,0,0,0,0,0.1304,0.1305,0.1339,0.1339,0.1339,0.1362,0.1362,0.1362,0.1374,0.1374,0.1374,0.1374,0.1397,0.1398,0.1398,0,0,0,0,0,0,0,0,0,0,0,0,0,0.1322,0.1305,0.1339,0.1348,0.1349,0.1362,0.1362,0.1363,0.1374,0.1374,0.1374,0.1374,0.1397,0.1397,0.1398,0.1404,0,0,0.1401,0.1402,0,0,0,0,0,0,0,0,0.1321,0.1323,0.1346,0.1347,0.1348,0.1365,0.1358,0.1376,0.1374,0.1364,0.1374,0.1374,0.1386,0.1388,0.1392,0.1405,0.1406,0.1401,0.1402,0.1402,0.1402,0,0,0,0,0,0,0,0.132,0.1323,0.1348,0.1347,0.1348,0.135,0.1353,0.1362,0.1375,0.1365,0.1366,0.1369,0.1387,0.1391,0.1393,0.1406,0.1401,0.1402,0.1403,0.1403,0.1424,0.1424,0,0,0,0,0,0,0.1317,0.1321,0.1347,0.1349,0.1335,0.1351,0.1354,0.136,0.1375,0.1377,0.1369,0.1369,0.139,0.1392,0.1394,0.1401,0.1402,0.1403,0.1404,0.1424,0.1424,0.1424,0,0,0,0,0,0,0.1316,0.1319,0.1346,0.1335,0.1339,0.1352,0.1358,0.136,0.1365,0.1378,0.138,0.1371,0.139,0.1393,0.1401,0.1402,0.1403,0.1404,0.1424,0.1424,0.1424,0.1415,0,0,0,0,0,0,0.1315,0.1319,0.1322,0.1335,0.1339,0.1353,0.1358,0.1361,0.1366,0.1367,0.138,0.1382,0.139,0.14,0.1402,0.1403,0.1405,0.1424,0.1424,0.1424,0.1416,0.1415,0.1415,0,0,0,0,0,0.1314,0.1318,0.1322,0.1325,0.1343,0.1353,0.1356,0.1365,0.1366,0.1369,0.1377,0.1382,0.1401,0.1401,0.1403,0.1405,0.1424,0.1424,0.1424,0.1416,0.1415,0.1415,0,0,0,0,0,0,0.1304,0.132,0.1324,0.1333,0.1342,0.1355,0.1359,0.1364,0.1372,0.1373,0.1383,0.1386,0.1394,0.14,0.1399,0.1411,0.1413,0.1414,0.1406,0.1406,0.1405,0.1403,0.1406,0,0,0,0,0,0.1303,0.1311,0.1324,0.1331,0.1335,0.1346,0.1351,0.1357,0.1367,0.137,0.1379,0.1388,0.1396,0.1401,0.1409,0.1417,0.1419,0.1419,0.1418,0.1418,0.1418,0.1422,0.1422,0.1424,0.1424,0.1424,0,0,0.1301,0.131,0.1315,0.1329,0.1336,0.1344,0.1349,0.1357,0.1362,0.1371,0.138,0.1387,0.1397,0.1405,0.1409,0.1411,0.1418,0.1418,0.1417,0.1418,0.1422,0.1422,0.1422,0.1424,0.1424,0.1424,0,0,0.13,0.1309,0.1315,0.1322,0.1333,0.1341,0.1342,0.1355,0.136,0.1369,0.1376,0.1382,0.1396,0.1403,0.1408,0.141,0.1415,0.1412,0.141,0.1413,0.1413,0.1413,0.1413,0.1413,0.1413,0.1413,0.1413,0,0.1296,0.1308,0.1317,0.1324,0.133,0.1339,0.1345,0.1351,0.1365,0.1368,0.137,0.1387,0.1395,0.1404,0.1405,0.1409,0.141,0.1411,0.1412,0.1412,0.1412,0.1413,0.1413,0.1412,0.1412,0.1412,0.1412,0,0.1302,0.1309,0.1313,0.1326,0.1332,0.1338,0.1348,0.1353,0.1359,0.1366,0.1374,0.1384,0.1394,0.1396,0.1402,0.1406,0.1407,0.141,0.1413,0.1412,0.1412,0.1412,0.1412,0.1412,0.1412,0.1412,0,0,0.1296,0.1314,0.1315,0.132,0.1333,0.1339,0.1346,0.1356,0.136,0.1369,0.1374,0.1385,0.1388,0.1394,0.14,0.1404,0.1404,0.1406,0.1407,0.1405,0.1409,0.1406,0.1406,0.1407,0.1407,0.1407,0.1408,0,0.1297,0.131,0.1318,0.1328,0.1335,0.1343,0.1348,0.1357,0.1363,0.137,0.1377,0.1385,0.1388,0.1392,0.1395,0.1403,0.1405,0.1403,0.1412,0.1412,0.1409,0.1407,0.1404,0.1405,0.1408,0.1408,0.1408,0,0.1301,0.1309,0.1319,0.1331,0.1334,0.1339,0.1349,0.1355,0.1364,0.1369,0.1375,0.1381,0.1388,0.139,0.14,0.1398,0.1402,0.1407,0.1407,0.1408,0.141,0.1408,0.1405,0.1405,0.1409,0.1409,0.1409,0,0.1295,0.1309,0.1317,0.1321,0.1335,0.1339,0.1345,0.1354,0.1359,0.1367,0.1371,0.1379,0.1384,0.139,0.1399,0.1399,0.1407,0.141,0.1411,0.141,0.1412,0.1412,0.141,0.1415,0.1415,0.1415,0.1415,0,0.1296,0.1302,0.1315,0.1319,0.1326,0.1335,0.1341,0.1347,0.1356,0.1361,0.1369,0.1374,0.1384,0.1391,0.1397,0.1403,0.1406,0.1409,0.1411,0.1409,0.1408,0.1411,0.1411,0.1415,0.1415,0.1415,0.1415,0,0.1291,0.13,0.1309,0.1321,0.1325,0.1329,0.1339,0.1344,0.135,0.1357,0.136,0.137,0.1378,0.1386,0.1397,0.1401,0.1407,0.141,0.1404,0.1405,0.1405,0.1405,0.1405,0.1406,0.141,0.141,0.141,0,0.1291,0.1296,0.1308,0.1313,0.1319,0.1326,0.1331,0.134,0.1345,0.1356,0.1359,0.1367,0.1374,0.1386,0.1395,0.1402,0.1405,0.1404,0.1406,0.1404,0.1405,0.1404,0.1405,0.1404,0.1404,0.1404,0.1404,0,0.129,0.1294,0.1301,0.131,0.1316,0.1324,0.1331,0.1334,0.1345,0.135,0.1358,0.1364,0.1374,0.1382,0.1391,0.1397,0.1402,0.1403,0.1404,0.1401,0.1398,0.14,0.1403,0.1403,0.1403,0.1403,0.1403,0.1403,0.1287,0.1292,0.1301,0.1309,0.1316,0.1322,0.1327,0.1334,0.1341,0.1351,0.1356,0.1363,0.1372,0.1384,0.139,0.1396,0.1397,0.1398,0.1399,0.1399,0.1398,0.1397,0.1397,0.1397,0.1398,0.1398,0.1398,0,0.1286,0.1293,0.13,0.131,0.1316,0.1321,0.1329,0.1334,0.1341,0.1348,0.1355,0.1364,0.1371,0.138,0.1388,0.1391,0.1393,0.1393,0.1393,0.1394,0.1396,0.1395,0.1391,0.1391,0.1391,0.1391,0.1391,0.1391,0.1286,0.1294,0.1299,0.1309,0.1315,0.1323,0.1328,0.1334,0.134,0.135,0.1356,0.1362,0.1369,0.1378,0.1385,0.1387,0.139,0.1388,0.1391,0.1393,0.1394,0.1394,0.1393,0.1389,0.1389,0.1388,0.1388,0.1388]},{"header":{"parameterUnit":"m.s-1","parameterCategory":1,"la1":30.2991,"la2":30.254,"lo1":-89.0895,"lo2":-89.0444,"dy":0.0017,"dx":0.0017,"nx":28,"ny":28,"refTime":"2023-08-26T21:00:00:Z","depth":0,"parameterNumber":3,"parameterNumberName":"V-component_of_WINDS"},"data":[0,0,0,0,0,0,0,0,0,0,0,0,0,0,0,0,0,0,0,0,0,0,0,0,0,0,0,0,0,0,0,0,0,0,0,0,0,0,0,0,0,0,0,0,0,0,0,0,0,0,0,0,0,0,0,0,0,0,3.3025,3.3025,0,3.2977,3.2976,3.2976,3.2996,3.2998,3.2999,3.3,3.2943,3.2941,3.2938,0,0,0,0,0,0,0,0,0,0,0,0,0,3.313,3.3128,3.3025,3.3025,3.3024,3.2977,3.2976,3.2975,3.2996,3.2998,3.2999,3.3,3.2944,3.2941,3.2938,0,0,0,0,0,0,0,0,0,0,0,0,0,3.3083,3.3127,3.3025,3.3029,3.3029,3.2977,3.2976,3.2975,3.2996,3.2998,3.3,3.3001,3.2945,3.2941,3.2938,3.2877,0,0,3.2925,3.2924,0,0,0,0,0,0,0,0,3.3086,3.3079,3.3029,3.3029,3.3028,3.2995,3.2992,3.2942,3.2995,3.3008,3.3,3.3002,3.2958,3.2954,3.294,3.2875,3.2872,3.2925,3.2923,3.2921,3.292,0,0,0,0,0,0,0,3.3089,3.3081,3.3006,3.3028,3.3028,3.3031,3.3026,3.2983,3.2973,3.3007,3.3009,3.3003,3.2959,3.2944,3.2939,3.2871,3.2925,3.2922,3.2919,3.2918,3.2753,3.2751,0,0,0,0,0,0,3.3093,3.3084,3.3007,3.3004,3.3062,3.3028,3.3022,3.3003,3.2974,3.2972,3.3001,3.3004,3.295,3.2944,3.2937,3.2864,3.2921,3.2917,3.2915,3.2755,3.2752,3.275,0,0,0,0,0,0,3.3095,3.3086,3.3009,3.3045,3.3035,3.3024,3.3002,3.3002,3.2987,3.297,3.2968,3.2989,3.2951,3.2943,3.2892,3.2862,3.2916,3.2912,3.2757,3.2754,3.2751,3.2717,0,0,0,0,0,0,3.3098,3.3087,3.3065,3.3044,3.3033,3.2967,3.3001,3.2999,3.2981,3.2984,3.2957,3.2955,3.2952,3.2898,3.2888,3.2858,3.2909,3.276,3.2756,3.2752,3.2721,3.2713,3.2707,0,0,0,0,0,3.3102,3.3056,3.3064,3.3054,3.3006,3.2965,3.2959,3.2958,3.2979,3.2956,3.2945,3.2955,3.2868,3.2893,3.2882,3.285,3.2761,3.2757,3.2752,3.2724,3.2715,3.2707,0,0,0,0,0,0,3.3071,3.3053,3.3062,3.3008,3.2988,3.2969,3.294,3.2949,3.2921,3.2925,3.2924,3.2917,3.2865,3.2852,3.2881,3.2789,3.2817,3.281,3.2799,3.279,3.2783,3.2787,3.2906,0,0,0,0,0,3.3059,3.3029,3.3014,3.2968,3.2958,3.2951,3.2933,3.2935,3.2913,3.2904,3.2889,3.2866,3.2833,3.2811,3.278,3.272,3.2713,3.2692,3.2685,3.2679,3.2673,3.2639,3.2629,3.2735,3.2735,3.2735,0,0,3.3032,3.3018,3.2999,3.2962,3.2947,3.2914,3.2943,3.2908,3.2882,3.2898,3.285,3.2838,3.2812,3.2756,3.2731,3.2744,3.2642,3.2674,3.2669,3.2665,3.2633,3.2623,3.2614,3.2732,3.2732,3.2733,0,0,3.2965,3.2953,3.2913,3.2898,3.2876,3.2871,3.2862,3.2841,3.2834,3.2787,3.2797,3.2767,3.271,3.2691,3.2674,3.2602,3.261,3.2591,3.2554,3.2521,3.2512,3.2505,3.2477,3.2468,3.2585,3.2585,3.2585,0,3.2934,3.2887,3.2891,3.2854,3.2837,3.2852,3.2811,3.2795,3.2762,3.2749,3.2765,3.2695,3.2679,3.2618,3.26,3.2587,3.2574,3.2593,3.2514,3.2506,3.2499,3.2473,3.2463,3.2583,3.2583,3.2583,3.2584,0,3.2848,3.2816,3.2786,3.2756,3.2736,3.2697,3.2693,3.2671,3.2675,3.2669,3.2619,3.26,3.2565,3.2551,3.2554,3.2491,3.2499,3.2515,3.2542,3.2487,3.2462,3.2452,3.258,3.258,3.2581,3.2582,0,0,3.2759,3.2734,3.2723,3.271,3.2687,3.266,3.2621,3.259,3.257,3.2547,3.2513,3.2466,3.248,3.2461,3.2461,3.2433,3.2375,3.2451,3.245,3.2436,3.2302,3.229,3.2278,3.2381,3.2379,3.2378,3.2304,0,3.269,3.2625,3.2627,3.2565,3.2534,3.2548,3.2514,3.2495,3.2488,3.2459,3.245,3.2416,3.2438,3.2427,3.2399,3.2388,3.2347,3.2393,3.2347,3.2345,3.2351,3.2266,3.2252,3.2183,3.2294,3.2293,3.2292,0,3.26,3.2577,3.2512,3.2493,3.248,3.245,3.2421,3.2394,3.2372,3.2369,3.2348,3.2353,3.2312,3.2342,3.2284,3.2315,3.2297,3.2288,3.2286,3.228,3.2314,3.2255,3.2162,3.2151,3.2277,3.2278,3.2279,0,3.254,3.2492,3.2447,3.2435,3.2413,3.2391,3.238,3.2361,3.2341,3.2315,3.2302,3.2271,3.2254,3.2228,3.2225,3.2248,3.2166,3.2196,3.216,3.216,3.214,3.2141,3.204,3.2131,3.2131,3.2131,3.2132,0,3.2461,3.242,3.242,3.2392,3.2346,3.2349,3.2303,3.2294,3.2277,3.2246,3.2256,3.2226,3.2224,3.2193,3.219,3.2141,3.2133,3.2128,3.2127,3.2126,3.2127,3.2112,3.2116,3.2129,3.2129,3.213,3.213,0,3.2385,3.2383,3.2335,3.2319,3.2314,3.228,3.2265,3.2238,3.2233,3.2193,3.2184,3.2175,3.2139,3.2133,3.209,3.2088,3.2029,3.2034,3.2037,3.2037,3.2001,3.2004,3.1886,3.187,3.1973,3.1972,3.1971,0,3.2334,3.2303,3.2284,3.2266,3.2254,3.2224,3.2205,3.2207,3.2186,3.2159,3.2134,3.21,3.2072,3.2014,3.2002,3.1969,3.1972,3.1933,3.1967,3.1967,3.1969,3.1971,3.1967,3.1926,3.1925,3.1924,3.1923,0,3.2243,3.2244,3.2217,3.219,3.2168,3.2146,3.2125,3.2109,3.2108,3.2084,3.2048,3.2027,3.1985,3.1949,3.1917,3.1904,3.1912,3.1913,3.1902,3.19,3.1902,3.1899,3.2018,3.1915,3.1916,3.1916,3.1917,3.1917,3.2177,3.215,3.2133,3.2102,3.2088,3.2068,3.2042,3.2034,3.2005,3.1972,3.1975,3.1935,3.1914,3.1872,3.1856,3.1824,3.1837,3.1822,3.1818,3.1813,3.1809,3.1909,3.1818,3.1819,3.1819,3.1819,3.1819,0,3.2085,3.2075,3.2047,3.2019,3.1995,3.2009,3.1987,3.1965,3.1931,3.1911,3.1885,3.1843,3.181,3.1796,3.1763,3.1739,3.1742,3.173,3.1731,3.1727,3.1801,3.1813,3.1728,3.1728,3.1728,3.1728,3.1728,3.1729,3.2034,3.1989,3.1988,3.1936,3.1926,3.1889,3.1875,3.1857,3.1841,3.1796,3.1769,3.1761,3.1743,3.1709,3.1678,3.1675,3.1661,3.1647,3.1645,3.1713,3.1722,3.1731,3.1742,3.1644,3.1644,3.1574,3.1573,3.1573]}]]